Gaylord, MI

8:51 AM EST on December 11, 2017 (GMT -0500)
Otsego County

Weather History for KGLR - February, 2013

Change the Weather History Date:

Saturday, February 23, 2013

  Actual Average Record
Temperature  
Mean Temperature 24 °F -  
Max Temperature 28 °F 32 °F 58 °F (1984)
Min Temperature 19 °F 15 °F -23 °F (2015)
Degree Days  
Heating Degree Days 42    
Moisture  
Dew Point 24 °F    
Average Humidity 91    
Maximum Humidity 100    
Minimum Humidity 80    
Precipitation  
Precipitation 0.09 in - - ()
Sea Level Pressure  
Sea Level Pressure 29.76 in    
Wind  
Wind Speed 6 mph (SW)    
Max Wind Speed 12 mph    
Max Gust Speed -    
Visibility 3 miles    
Events Fog , Snow    
Averages and records for this station are not official NWS values.
T = Trace of Precipitation, MM = Missing Value Source: NWS Daily Summary

Daily Weather History Graph

Daily Weather History Graph

Search for Another Location

Airport or City:

Trip Planner

Search our weather history database for the weather conditions in past years. The results will help you decide how hot, cold, wet, or windy it might be!

Date:

Astronomy

Feb. 23, 2013 Rise Set
Actual Time 7:26 AM EST 6:18 PM EST
Civil Twilight 6:56 AM EST 6:48 PM EST
Nautical Twilight 6:22 AM EST 7:22 PM EST
Astronomical Twilight 5:48 AM EST 7:56 PM EST
Moon 4:25 PM EST (2/23) 5:52 AM EST (2/23)
Length of Visible Light 11h 51m
Length of Day
10h 51m
Waxing Gibbous, 95% of the Moon is Illuminated
Feb 23
Waxing Gibbous
Feb 25
Full
Mar 4
Last Quarter
Mar 11
New
Mar 19
First Quarter

Hourly Weather History & Observations

Time (EST) Temp. Windchill Dew Point Humidity Pressure Visibility Wind Dir Wind Speed Gust Speed Precip Events Conditions
12:45 AM 24.8 °F 17.9 °F 23.0 °F 93% 29.75 in 5.0 mi South 5.8 mph - N/A   Overcast
12:53 AM 24.1 °F 18.2 °F 23.0 °F 96% 29.81 in 5.0 mi South 4.6 mph - N/A   Overcast
1:22 AM 24.8 °F 19.1 °F 23.0 °F 93% 29.74 in 5.0 mi South 4.6 mph - 0.00 in   Overcast
1:34 AM 24.8 °F 20.5 °F 23.0 °F 93% 29.74 in 3.0 mi South 3.5 mph - 0.00 in Snow Light Snow
1:42 AM 24.8 °F 19.1 °F 23.0 °F 93% 29.73 in 2.0 mi South 4.6 mph - 0.00 in Snow Light Snow
1:53 AM 24.1 °F 19.7 °F 23.0 °F 96% 29.79 in 4.0 mi South 3.5 mph - 0.00 in Snow Light Snow
2:15 AM 24.8 °F 19.1 °F 23.0 °F 93% 29.73 in 4.0 mi South 4.6 mph - 0.00 in   Overcast
2:22 AM 24.8 °F 19.1 °F 23.0 °F 93% 29.73 in 4.0 mi South 4.6 mph - 0.00 in   Overcast
2:46 AM 24.8 °F 19.1 °F 24.8 °F 100% 29.73 in 2.5 mi South 4.6 mph - 0.00 in   Overcast
2:53 AM 25.0 °F 20.7 °F 24.1 °F 96% 29.79 in 2.5 mi South 3.5 mph - 0.00 in   Overcast
3:53 AM 26.1 °F 19.4 °F 25.0 °F 96% 29.77 in 2.0 mi SW 5.8 mph - N/A   Overcast
4:53 AM 26.1 °F 18.4 °F 25.0 °F 96% 29.77 in 2.5 mi SW 6.9 mph - N/A   Overcast
5:13 AM 26.6 °F 19.1 °F 24.8 °F 93% 29.71 in 3.0 mi SW 6.9 mph - N/A   Overcast
5:53 AM 27.0 °F 20.5 °F 25.0 °F 92% 29.77 in 3.0 mi SSW 5.8 mph - 0.00 in Snow Light Snow
6:26 AM 26.6 °F 19.1 °F 24.8 °F 93% 29.71 in 4.0 mi SSW 6.9 mph - 0.00 in Snow Light Snow
6:53 AM 27.0 °F 20.5 °F 25.0 °F 92% 29.77 in 3.0 mi South 5.8 mph - 0.00 in Snow Light Snow
7:14 AM 26.6 °F 19.1 °F 24.8 °F 93% 29.71 in 4.0 mi SSW 6.9 mph - 0.00 in Snow Light Snow
7:37 AM 26.6 °F 20.0 °F 24.8 °F 93% 29.71 in 3.0 mi South 5.8 mph - 0.00 in Snow Light Snow
7:46 AM 26.6 °F 19.1 °F 24.8 °F 93% 29.71 in 2.5 mi South 6.9 mph - 0.00 in Snow Light Snow
7:53 AM 26.1 °F 18.4 °F 25.0 °F 96% 29.77 in 3.0 mi South 6.9 mph - 0.00 in Snow Light Snow
7:59 AM 26.6 °F 19.1 °F 24.8 °F 93% 29.71 in 2.5 mi South 6.9 mph - 0.00 in Snow Light Snow
8:20 AM 26.6 °F 18.2 °F 24.8 °F 93% 29.71 in 2.0 mi South 8.1 mph - 0.00 in Snow Light Snow
8:53 AM 27.0 °F 17.3 °F 24.1 °F 89% 29.77 in 3.0 mi SSW 10.4 mph - 0.00 in Snow Light Snow
9:53 AM 27.0 °F 17.3 °F 25.0 °F 92% 29.77 in 10.0 mi SW 10.4 mph - 0.00 in   Overcast
10:53 AM 28.0 °F 20.0 °F 25.0 °F 88% 29.78 in 10.0 mi WSW 8.1 mph - N/A   Overcast
11:53 AM 28.9 °F 21.1 °F 24.1 °F 82% 29.78 in 8.0 mi West 8.1 mph - 0.00 in Snow Light Snow
12:49 PM 28.4 °F 19.7 °F 24.8 °F 86% 29.73 in 1.8 mi WSW 9.2 mph - 0.00 in Snow Light Snow
12:53 PM 28.0 °F 18.1 °F 24.1 °F 85% 29.79 in 1.5 mi WSW 11.5 mph - 0.00 in Snow Light Snow
1:13 PM 28.4 °F 20.4 °F 24.8 °F 86% 29.73 in 0.8 mi WSW 8.1 mph - 0.01 in Snow Light Snow
1:21 PM 28.4 °F 20.4 °F 24.8 °F 86% 29.73 in 1.2 mi WSW 8.1 mph - 0.01 in Snow Light Snow
1:40 PM 28.4 °F 19.1 °F 24.8 °F 86% 29.73 in 3.0 mi WSW 10.4 mph - 0.01 in Snow Light Snow
1:53 PM 28.0 °F 18.6 °F 23.0 °F 81% 29.78 in 5.0 mi WSW 10.4 mph - 0.01 in Snow Light Snow
2:17 PM 28.4 °F 19.7 °F 24.8 °F 86% 29.73 in 1.8 mi WSW 9.2 mph - 0.00 in Snow Light Snow
2:45 PM 26.6 °F 17.5 °F 24.8 °F 93% 29.73 in 0.8 mi WSW 9.2 mph - 0.00 in Snow Light Snow
2:53 PM 27.0 °F 18.7 °F 25.0 °F 92% 29.79 in 0.5 mi West 8.1 mph - 0.00 in Fog , Snow Snow
3:09 PM 26.6 °F 19.1 °F 24.8 °F 93% 29.73 in 0.5 mi WSW 6.9 mph - 0.01 in Fog , Snow Snow
3:16 PM 26.6 °F 19.1 °F 24.8 °F 93% 29.73 in 0.2 mi WSW 6.9 mph - 0.02 in Fog , Snow Snow
3:37 PM 26.6 °F 17.5 °F 24.8 °F 93% 29.74 in 0.5 mi WSW 9.2 mph - 0.03 in Fog , Snow Light Snow
3:53 PM 27.0 °F 19.5 °F 25.0 °F 92% 29.79 in 0.5 mi SW 6.9 mph - 0.04 in Fog , Snow Snow
4:01 PM 26.6 °F 19.1 °F 24.8 °F 93% 29.73 in 1.0 mi SW 6.9 mph - 0.00 in Snow Light Snow
4:10 PM 26.6 °F 18.2 °F 24.8 °F 93% 29.73 in 0.8 mi SW 8.1 mph - 0.00 in Snow Light Snow
4:21 PM 26.6 °F 17.5 °F 24.8 °F 93% 29.74 in 1.0 mi WSW 9.2 mph - 0.00 in Snow Light Snow
4:30 PM 26.6 °F 17.5 °F 24.8 °F 93% 29.74 in 1.0 mi SW 9.2 mph - 0.00 in Snow Light Snow
4:35 PM 26.6 °F 17.5 °F 24.8 °F 93% 29.74 in 1.5 mi SW 9.2 mph - 0.00 in Snow Light Snow
4:41 PM 26.6 °F 16.8 °F 23.0 °F 86% 29.74 in 1.8 mi SW 10.4 mph - 0.00 in Snow Light Snow
4:53 PM 27.0 °F 18.7 °F 23.0 °F 85% 29.79 in 2.0 mi SW 8.1 mph - 0.00 in Snow Light Snow
5:05 PM 26.6 °F 19.1 °F 24.8 °F 93% 29.74 in 1.5 mi WSW 6.9 mph - 0.00 in Snow Light Snow
5:13 PM 26.6 °F 21.2 °F 24.8 °F 93% 29.74 in 1.8 mi West 4.6 mph - 0.00 in Snow Light Snow
5:30 PM 26.6 °F 18.2 °F 21.2 °F 80% 29.75 in 2.0 mi WSW 8.1 mph - 0.00 in Snow Light Snow
5:45 PM 26.6 °F 18.2 °F 23.0 °F 86% 29.75 in 1.5 mi SW 8.1 mph - 0.00 in Snow Light Snow
5:53 PM 26.1 °F 18.4 °F 23.0 °F 88% 29.81 in 1.5 mi SW 6.9 mph - 0.00 in Snow Light Snow
6:38 PM 26.6 °F 18.2 °F 23.0 °F 86% 29.76 in 1.0 mi SW 8.1 mph - 0.01 in Snow Light Snow
6:53 PM 26.1 °F 19.4 °F 24.1 °F 92% 29.82 in 0.8 mi WSW 5.8 mph - 0.01 in Snow Light Snow
7:04 PM 24.8 °F 20.5 °F 24.8 °F 100% 29.77 in 0.8 mi WSW 3.5 mph - 0.01 in Snow Light Snow
7:27 PM 26.6 °F - 24.8 °F 93% 29.77 in 1.5 mi Calm Calm - 0.02 in Snow Light Snow
7:35 PM 24.8 °F 16.1 °F 23.0 °F 93% 29.77 in 3.0 mi WSW 8.1 mph - 0.02 in Snow Light Snow
7:49 PM 24.8 °F 16.9 °F 21.2 °F 86% 29.78 in 4.0 mi WSW 6.9 mph - 0.02 in Snow Light Snow
7:53 PM 25.0 °F 16.3 °F 21.9 °F 88% 29.83 in 5.0 mi WSW 8.1 mph - 0.02 in Snow Light Snow
8:19 PM 24.8 °F 16.9 °F 21.2 °F 86% 29.78 in 6.0 mi SW 6.9 mph - 0.00 in Snow Light Snow
8:43 PM 24.8 °F 19.1 °F 21.2 °F 86% 29.78 in 2.5 mi SW 4.6 mph - 0.00 in Snow Light Snow
8:53 PM 24.1 °F 18.2 °F 21.9 °F 91% 29.84 in 2.0 mi SW 4.6 mph - 0.00 in Snow Light Snow
9:23 PM 24.8 °F 20.5 °F 21.2 °F 86% 29.78 in 4.0 mi SSW 3.5 mph - 0.01 in Snow Light Snow
9:36 PM 24.8 °F 20.5 °F 23.0 °F 93% 29.78 in 2.0 mi SSW 3.5 mph - 0.01 in Snow Light Snow
9:53 PM 23.0 °F - 21.9 °F 96% 29.84 in 2.0 mi Calm Calm - 0.01 in Snow Light Snow
10:09 PM 23.0 °F 17.0 °F 21.2 °F 93% 29.78 in 3.0 mi SSW 4.6 mph - 0.00 in Snow Light Snow
10:29 PM 21.2 °F 14.9 °F 21.2 °F 100% 29.78 in 3.0 mi SW 4.6 mph - 0.00 in Snow Light Snow
10:53 PM 19.9 °F 12.1 °F 18.0 °F 92% 29.83 in 7.0 mi WSW 5.8 mph - 0.00 in   Mostly Cloudy
11:16 PM 19.4 °F - 17.6 °F 93% 29.77 in 2.0 mi Calm Calm - N/A   Overcast
11:26 PM 21.2 °F - 17.6 °F 86% 29.77 in 5.0 mi Calm Calm - N/A   Overcast
11:53 PM 21.0 °F - 19.9 °F 96% 29.83 in 4.0 mi Calm Calm - 0.00 in Snow Light Snow